Regional Weather Roundup
Issued by NWS

Home | Current Version | Previous Version | Text Only | Print | Product List | Glossary On
Versions: 1 2 3 4 5 6 7 8 9 10 11 12 13 14 15 16 17 18 19 20 21 22 23 24 25 26 27 28 29 30 31 32 33 34 35 36 37 38 39 40 41 42 43 44 45 46 47 48 49 50
000
ASUS43 KOAX 300110
RWRNE

WEATHER ROUNDUP FOR NEBRASKA
NATIONAL WEATHER SERVICE OMAHA NE
800 PM CDT MON JUN 29 2015

NOTES: SATELLITE DATA IS BEING USED TO AUGMENT CLOUD COVER ABOVE
       12000 FEET.
       "FAIR" INDICATES FEW OR NO CLOUDS BELOW 12,000 FEET WITH NO
       SIGNIFICANT WEATHER AND/OR OBSTRUCTIONS TO VISIBILITY.

  * THESE STATIONS DO NOT REPORT WEATHER SUCH AS RAIN...SNOW OR FOG.

NEZ001>004-019>022-054>056-300200-
NEBRASKA PANHANDLE

CITY           SKY/WX    TMP DP  RH WIND       PRES   REMARKS
SCOTTSBLUFF    CLOUDY    86  56  35 SE9       30.08S
ALLIANCE       PTSUNNY   81  59  47 NE6       30.09F
CHADRON        MOSUNNY   81  62  52 NE7       30.04F
KIMBALL          N/A    N/A N/A N/A MISG        N/A
SIDNEY         MOSUNNY   80  55  42 NE7       30.13S
$$

NEZ057>060-069>072-079>082-300200-
SOUTHWEST NEBRASKA

CITY           SKY/WX    TMP DP  RH WIND       PRES   REMARKS
NORTH PLATTE   SUNNY     87  63  44 SE3       30.00S
IMPERIAL       SUNNY     87  57  35 SE3       30.05S
LEXINGTON      SUNNY     88  59  37 NE5       29.99S
MCCOOK         SUNNY     91  56  30 N7        29.99F
OGALLALA       SUNNY     88  52  29 CALM      30.05S
$$

NEZ005>010-023>029-035>040-094-300200-
NORTH CENTRAL NEBRASKA

CITY           SKY/WX    TMP DP  RH WIND       PRES   REMARKS
VALENTINE      SUNNY     86  57  37 NE7       30.00S
AINSWORTH      SUNNY     85  57  38 N5        30.01S
BROKEN BOW     SUNNY     86  63  45 NE5       30.00R
O`NEILL        SUNNY     84  64  50 CALM      29.96S
ORD            SUNNY     85  62  46 NE5       29.95S
THEDFORD       SUNNY     86  62  44 NE6       30.03S
$$

NEZ041-046>049-061>064-073>077-083>087-300200-
SOUTH CENTRAL NEBRASKA

CITY           SKY/WX    TMP DP  RH WIND       PRES   REMARKS
GRAND ISLAND   SUNNY     85  62  46 NE5       29.96S HAZE
AURORA         SUNNY     82  65  56 E3        29.96S
HASTINGS       SUNNY     85  61  44 NW3       29.96F
HEBRON         SUNNY     84  58  40 CALM      29.94S
HOLDREGE       SUNNY     83  63  49 E5        29.99S
KEARNEY *      SUNNY     86  61  42 NE3       29.97F
YORK           SUNNY     82  63  51 NE5       29.95S
$$

NEZ011>018-030>034-042>045-300200-
NORTHEAST NEBRASKA

CITY           SKY/WX    TMP DP  RH WIND       PRES   REMARKS
NORFOLK        SUNNY     83  63  50 NW3       29.93F
ALBION         SUNNY     79  61  53 E5        29.95F
BLAIR          CLEAR     78  60  53 NW6       29.92S
COLUMBUS *     SUNNY    N/A N/A N/A MISG        N/A
FREMONT        CLEAR     82  58  45 CALM      29.92S
TEKAMAH        CLEAR     80  65  59 NW3       29.90S
WAYNE          SUNNY     77  68  73 CALM      29.92F
$$

NEZ050>053-065>068-078-088>093-300200-
SOUTHEAST NEBRASKA

CITY           SKY/WX    TMP DP  RH WIND       PRES   REMARKS
LINCOLN        CLEAR     81  63  54 N8        29.93S
OMAHA EPPLEY   CLOUDY    81  65  58 CALM      29.90S
BEATRICE       CLEAR     82  64  53 NW3       29.93R
FALLS CITY     CLEAR     81  65  58 CALM      29.90R
NEBRASKA CITY  CLEAR     79  55  43 N3        29.92R
PLATTSMOUTH    CLEAR     79  61  54 CALM      29.91S
$$

NEZ044-045-051>053-067-300200-
OMAHA AREA

CITY           SKY/WX    TMP DP  RH WIND       PRES   REMARKS
OMAHA EPPLEY   CLOUDY    81  65  58 CALM      29.90S
BLAIR          CLEAR     78  60  53 NW6       29.92S
FREMONT        CLEAR     82  58  45 CALM      29.92S
MILLARD        CLEAR     83  61  47 CALM      29.91R
OFFUTT AFB     CLEAR     80  65  61 NE3       29.90S
PLATTSMOUTH    CLEAR     79  61  54 CALM      29.91S
WAHOO          FAIR      81  64  54 N3        29.92S
$$


USA.gov is the U.S. government's official web portal to all federal, state and local government web resources and services.